Regional Weather Roundup
Issued by NWS Kansas City/Pleasant Hill, MO

Home | Current Version | Previous Version | Text Only | Print | Product List | Glossary On
Versions: 1 2 3 4 5 6 7 8 9 10 11 12 13 14 15 16 17 18 19 20 21 22 23 24 25 26 27 28 29 30 31 32 33 34 35 36 37 38 39 40 41 42 43 44 45 46 47 48 49 50
573
ASUS43 KEAX 170210
RWREAX

WEATHER ROUNDUP FOR EASTERN KANSAS AND NORTHWEST MISSOURI
NATIONAL WEATHER SERVICE KANSAS CITY/PLEASANT HILL MO
800 PM CST MON JAN 16 2017

KSZ040-057-103>105-MOZ028-029-037-043-170300-
...KANSAS CITY METROPOLITAN AREA...

CITY           SKY/WX    TMP DP  RH WIND       PRES   REMARKS
K.C. INTL      CLOUDY    40  39  97 SW10      29.90R WCI  33
K.C. DOWNTOWN  CLOUDY    42  39  89 SW9G20    29.91R
LEES SUMMIT    CLOUDY    42  32  67 SW15      29.91R WCI  34
OLATHE - IXD   CLOUDY    40  38  93 SW12      29.92R WCI  33
OLATHE - OJC   CLOUDY    40  39  97 SW9G21    29.91R WCI  34
LAWRENCE       CLOUDY    40  39  97 SW14      29.92S WCI  32

$$

MOZ001>008-011>017-020>025-030>033-038>040-044>046-053-054-170300-
...NORTHERN AND CENTRAL MISSOURI...

CITY           SKY/WX    TMP DP  RH WIND       PRES   REMARKS
ST. JOSEPH     CLOUDY    37  37 100 NW6       29.90R WCI  32
MOSBY          CLOUDY    43  41  93 W12G20    29.90R
WARRENSBURG    CLOUDY    43  39  87 SW15      29.91R
WHITEMAN AFB   CLOUDY    44  44 100 W16G23    29.89R
CLINTON        CLOUDY    45  41  87 W16G25    29.93R
SEDALIA        CLOUDY    49  45  86 W13G22    29.90R
WARSAW         NOT AVBL
CHILLICOTHE      N/A     45  44  97 VRB5      29.88S
KIRKSVILLE     LGT RAIN  40  40 100 NE5       29.85F FOG

$$

MOZ041-047>049-056>058-063>065-088>090-097-170300-
...EASTERN AND SOUTHERN MISSOURI...

CITY           SKY/WX    TMP DP  RH WIND       PRES   REMARKS
ST. LOUIS INTL CLOUDY    56  53  90 SE9       29.87F FOG
SPIRIT OF STL  FOG       51  51 100 E5        29.87F VSB 1
COLUMBIA       LGT RAIN  55  53  93 W18G25    29.85R
JEFFERSON CITY LGT RAIN  57  54  89 S12       29.84S
ROLLA          CLOUDY    56  56 100 S13       29.85S
OSAGE BEACH    CLOUDY    56  52  86 W13G20    29.88R
SPRINGFIELD    CLOUDY    47  40  76 W22G30    29.95R
BRANSON        CLEAR     54  45  71 W9        29.94R
JOPLIN         CLOUDY    43  36  76 SW16G24   30.00R
WEST PLAINS    CLOUDY    60  58  92 S10       29.92S

$$

IAZ060-094-KSZ022-034>040-054-083-096-NEZ052-066-093-170300-
...KANSAS...SOUTHEAST NEBRASKA AND IOWA...

CITY           SKY/WX    TMP DP  RH WIND       PRES   REMARKS
TOPEKA         CLOUDY    38  34  85 W10       29.93R WCI  31
MANHATTAN      CLOUDY    35  33  92 W5        29.97R WCI  31
EMPORIA        CLOUDY    36  35  96 W8        29.96R WCI  30
CHANUTE        CLOUDY    40  38  93 SW12      29.98R WCI  33
WICHITA        CLOUDY    36  34  92 W9        29.99S WCI  29
OMAHA          CLOUDY    34  30  85 NW13      29.95R WCI  25
LINCOLN        LGT RAIN  33  32  96 N14       29.98R FOG     WCI  23
FALLS CITY     CLOUDY    34  33  96 NW9       29.91R WCI  27
LAMONI         FOG       35  34  96 N6        29.86S VSB 3/4 WCI  30
DES MOINES     DRZL/FOG  34  33  96 NE3       29.89S VSB 1/4

$$





USA.gov is the U.S. government's official web portal to all federal, state and local government web resources and services.